Detroit, MI

11:39 AM EDT on May 25, 2018 (GMT -0400)
Detroit City

Weather History for KDET - November, 2013

Change the Weather History Date:

Tuesday, November 12, 2013

  Actual Average Record
Temperature  
Mean Temperature 30 °F -  
Max Temperature 34 °F 46 °F 69 °F (1964)
Min Temperature 25 °F 33 °F 20 °F (1979)
Degree Days  
Heating Degree Days 36    
Moisture  
Dew Point 15 °F    
Average Humidity 56    
Maximum Humidity 69    
Minimum Humidity 43    
Precipitation  
Precipitation 0.00 in - - ()
Sea Level Pressure  
Sea Level Pressure 30.48 in    
Wind  
Wind Speed 11 mph (NW)    
Max Wind Speed 16 mph    
Max Gust Speed 25 mph    
Visibility 10 miles    
Events      
Averages and records for this station are not official NWS values.
T = Trace of Precipitation, MM = Missing Value Source: NWS Daily Summary

Daily Weather History Graph

Daily Weather History Graph

Search for Another Location

Airport or City:

Astronomy

Nov. 12, 2013 Rise Set
Actual Time 7:19 AM EST 5:12 PM EST
Civil Twilight 6:49 AM EST 5:42 PM EST
Nautical Twilight 6:15 AM EST 6:16 PM EST
Astronomical Twilight 5:42 AM EST 6:49 PM EST
Moon 2:31 PM EST (11/12) 2:02 AM EST (11/12)
Length of Visible Light 10h 53m
Length of Day
9h 52m
Waxing Gibbous, 76% of the Moon is Illuminated
Nov 12
Waxing Gibbous
Nov 17
Full
Nov 25
Last Quarter
Dec 2
New
Dec 9
First Quarter

Hourly Weather History & Observations

Time (EST) Temp. Windchill Dew Point Humidity Pressure Visibility Wind Dir Wind Speed Gust Speed Precip Events Conditions
12:53 AM 28.0 °F 18.6 °F 18.0 °F 66% 30.33 in 10.0 mi NNW 10.4 mph - N/A   Scattered Clouds
1:53 AM 28.0 °F 18.6 °F 17.1 °F 63% 30.34 in 10.0 mi NNW 10.4 mph - N/A   Overcast
2:53 AM 27.0 °F 15.6 °F 16.0 °F 63% 30.37 in 10.0 mi NNW 13.8 mph 20.7 mph N/A   Scattered Clouds
3:53 AM 26.1 °F 16.8 °F 15.1 °F 63% 30.39 in 10.0 mi NW 9.2 mph - N/A   Clear
4:53 AM 25.0 °F 14.8 °F 15.1 °F 66% 30.41 in 10.0 mi NNW 10.4 mph 16.1 mph N/A   Clear
5:53 AM 25.0 °F 14.2 °F 16.0 °F 69% 30.43 in 10.0 mi NNW 11.5 mph - N/A   Clear
6:53 AM 25.0 °F 14.2 °F 16.0 °F 69% 30.46 in 10.0 mi NNW 11.5 mph 19.6 mph N/A   Clear
7:53 AM 26.1 °F 16.8 °F 17.1 °F 69% 30.48 in 10.0 mi NNW 9.2 mph - N/A   Clear
8:53 AM 28.9 °F 18.6 °F 18.0 °F 64% 30.50 in 10.0 mi NNW 12.7 mph 20.7 mph N/A   Clear
9:53 AM 30.0 °F 18.7 °F 17.1 °F 59% 30.51 in 10.0 mi NNW 16.1 mph 24.2 mph N/A   Clear
10:53 AM 32.0 °F 21.6 °F 18.0 °F 56% 30.53 in 10.0 mi NNW 15.0 mph 24.2 mph N/A   Clear
11:53 AM 33.1 °F 23.0 °F 17.1 °F 52% 30.53 in 10.0 mi NNW 15.0 mph 23.0 mph N/A   Mostly Cloudy
12:53 PM 34.0 °F 26.0 °F 16.0 °F 48% 30.52 in 10.0 mi NW 10.4 mph 25.3 mph N/A   Scattered Clouds
1:53 PM 34.0 °F 24.6 °F 15.1 °F 46% 30.51 in 10.0 mi WNW 13.8 mph 20.7 mph N/A   Scattered Clouds
2:53 PM 33.1 °F 24.9 °F 14.0 °F 46% 30.51 in 10.0 mi WNW 10.4 mph 20.7 mph N/A   Mostly Cloudy
3:53 PM 33.1 °F 23.9 °F 12.9 °F 43% 30.51 in 10.0 mi NW 12.7 mph 21.9 mph N/A   Overcast
4:53 PM 32.0 °F 23.6 °F 14.0 °F 48% 30.51 in 10.0 mi NW 10.4 mph 18.4 mph N/A   Mostly Cloudy
5:53 PM 30.9 °F 25.2 °F 15.1 °F 52% 30.51 in 10.0 mi NW 5.8 mph - N/A   Partly Cloudy
6:53 PM 32.0 °F 25.6 °F 15.1 °F 50% 30.52 in 10.0 mi NW 6.9 mph 16.1 mph N/A   Overcast
7:53 PM 30.9 °F 22.8 °F 14.0 °F 50% 30.54 in 10.0 mi NNW 9.2 mph - N/A   Overcast
8:53 PM 30.0 °F 24.1 °F 12.0 °F 47% 30.54 in 10.0 mi NNW 5.8 mph - N/A   Overcast
9:53 PM 28.9 °F 21.1 °F 10.9 °F 47% 30.55 in 10.0 mi NNW 8.1 mph - N/A   Overcast
10:53 PM 28.9 °F 21.9 °F 12.0 °F 49% 30.55 in 10.0 mi NNW 6.9 mph - N/A   Mostly Cloudy
11:53 PM 27.0 °F 21.6 °F 12.9 °F 56% 30.55 in 10.0 mi NW 4.6 mph - N/A   Partly Cloudy